Showing default

JILIN-1-03, 41914

Orbit data source: Space-Track

JILIN-1-03, 41914 is a payload satellite owned by Changguang WJ (CN) in SSO that was launched on Mon, 09 Jan 2017 UTC via a KUAIZHOU-1A launch vehicle from the Jiuquan Satellite Launch Center, China (JSC). Payload-class satellites include a variety of spacecraft equipped with specific instruments for various scientific and technological missions. These include communications satellites like Starlink; space stations such as the ISS; scientific satellites like the Hubble; Earth observation satellites from companies like Planet Labs, Umbra, and HawkEye 360; GPS; miniature CubeSats for education and research; and military/defense satellites.

Loading next visibility...
Identifier
41914, 2017-002B
Orbit
SSO
Country
Flag of CNCN / PRC
Related business
Manufacturer
HARB/CIOMP
Mission
Operational Commercial Imaging
Bus & Motor
JL-1, Unknown motor
Mass
165 kg wet, 165 kg dry
Launch date (UTC)
2017-01-09 (9 years ago)
Launch vehicle
KUAIZHOU-1A
Launch site
Jiuquan Satellite Launch Center, China (JSC)
Object type
Payload
Rocket body
Debris
Shape & HBR
Box + 2 Pan, 1.5 m
Radar Cross Section
1.019 m², Medium (>0.1 m² and < 1m²)

Expand to show TLE details & history
Last TLE update: 2 days ago

TLE from 2 days ago
0 JILIN-1-03
1 41914U 17002B   26171.40116381  .00010665  00000-0  25493-3 0  9994
2 41914  97.1950 178.4402 0007136 145.1344 215.0372 15.41641977522359
Epoch: 2026-06-20T09:37Z
TLE epoch observation values (Epoch: 2026-06-20T09:37:40.553Z)
Latitude
-0.00002°
Longitude
125.40491°
Altitude
448.375 km
Speed
7.641 km/s
True Right ascension
11h 53m 45s
True Declination
0° 00' 00"
Sunlit
Object was in daylight at epoch
Visualization orbit readout
Latitude
Unknown
Longitude
Unknown
Altitude
Unknown
Speed
Unknown
Apparent Right ascension
Unknown
Apparent Declination
Unknown
Sunlit
N/A
Visualization observer readout
Local Sidereal Time
21:30:23
Azimuth
Unknown
Elevation
Unknown
Doppler factor
Unknown
Orbital elements
Apogee altitude
443.055 km
Perigee altitude
433.327 km
Semi-major axis
6,816.328 km
Eccentricity
0.00071
Inclination
97.195°
RAAN
178.4402°
Arg. of periapsis
145.1344°
True anomaly
214.99029°
Mean anomaly
215.0372°
Eccentric anomaly
215.01374°
Mean motion
3.85671 °/min
Orbital period
93.34 mins
BSTAR
0.00025493
Loading maneuver chart data...
Computing Atmospheric mass density...
Loading historical data...
Loading historical data...
Loading historical data...
Loading historical data...
Loading historical data...
Loading historical data...
Loading historical data...
Other satellites on launch #2 in the year 2017 (2017-01-09 UTC)

Documentation

Showing up to 5 results
|